This is the latest recevied weather packets stored in our database for station/object EA3IK-1. If no packets are shown the sender has not sent any weather packets the latest 10 day(s).
| Time | Temp. | Humidity | Pressure | Rain* | Wind** | Luminosity | Snow |
|---|---|---|---|---|---|---|---|
| 1777599621 | 15° C | 43% | 1019.7 hPa | 0 mm | - | - | - |
| 1777598720 | 15° C | 43% | 1019.6 hPa | 0 mm | - | - | - |
| 1777597820 | 15° C | 43% | 1019.7 hPa | 0 mm | - | - | - |
| 1777596919 | 15.56° C | 43% | 1019.7 hPa | 0 mm | - | - | - |
| 1777596018 | 15.56° C | 42% | 1019.8 hPa | 0 mm | - | - | - |
| 1777595117 | 15.56° C | 43% | 1019.7 hPa | 0 mm | - | - | - |
| 1777594216 | 16.11° C | 43% | 1019.7 hPa | 0 mm | - | - | - |
| 1777593315 | 15.56° C | 42% | 1019.6 hPa | 0 mm | - | - | - |
| 1777592414 | 15.56° C | 43% | 1019.4 hPa | 0 mm | - | - | - |
| 1777591513 | 15.56° C | 42% | 1019.2 hPa | 0 mm | - | - | - |
| 1777590613 | 15.56° C | 43% | 1019.1 hPa | 0 mm | - | - | - |
| 1777589712 | 16.11° C | 41% | 1018.9 hPa | 0 mm | - | - | - |
| 1777588811 | 16.11° C | 40% | 1018.8 hPa | 0 mm | - | - | - |
| 1777587910 | 16.67° C | 39% | 1018.7 hPa | 0 mm | - | - | - |
| 1777587009 | 16.67° C | 40% | 1018.7 hPa | 0 mm | - | - | - |
| 1777586108 | 16.11° C | 41% | 1018.7 hPa | 0 mm | - | - | - |
| 1777585208 | 16.67° C | 41% | 1018.7 hPa | 0 mm | - | - | - |
| 1777584307 | 16.67° C | 42% | 1018.6 hPa | 0 mm | - | - | - |
| 1777583406 | 16.67° C | 43% | 1018.4 hPa | 0 mm | - | - | - |
| 1777582505 | 16.67° C | 44% | 1018.2 hPa | 0 mm | - | - | - |
| 1777581604 | 16.67° C | 46% | 1018.1 hPa | 0 mm | - | - | - |
| 1777580703 | 17.22° C | 47% | 1017.9 hPa | 0 mm | - | - | - |
| 1777579802 | 17.22° C | 49% | 1017.6 hPa | 0 mm | - | - | - |
| 1777578902 | 17.22° C | 53% | 1017.5 hPa | 0 mm | - | - | - |
| 1777578001 | 17.78° C | 57% | 1017.2 hPa | 0 mm | - | - | - |
* Rain latest hour (hover to see other rain measurements)
** Current wind speed in m/s (hover to see current wind gust speed)